Weather History for KLAA - January, 2012

Change the Weather History Date:

Sunday, January 15, 2012

  Actual Average Record
Temperature  
Mean Temperature 35 °F 29 °F  
Max Temperature 48 °F 45 °F 72 °F (1999)
Min Temperature 22 °F 13 °F -14 °F (1962)
Degree Days  
Heating Degree Days 30 36  
Month to date heating degree days 541 552  
Since 1 July heating degree days 2859 2865  
Cooling Degree Days 0 0  
Month to date cooling degree days 0 0  
Year to date cooling degree days 0 0  
Moisture  
Dew Point 25 °F    
Average Humidity 71    
Maximum Humidity 92    
Minimum Humidity 49    
Precipitation  
Precipitation 0.00 in 0.01 in 0.37 in (1966)
Month to date precipitation 0.00 0.10  
Year to date precipitation 0.10  
Sea Level Pressure  
Sea Level Pressure 29.81 in    
Wind  
Wind Speed 10 mph (SW)    
Max Wind Speed 22 mph    
Max Gust Speed 26 mph    
Visibility 10 miles    
Events      
T = Trace of Precipitation, MM = Missing Value Source: NWS Daily Summary

Daily Weather History Graph

Daily Weather History Graph

Search for Another Location

Airport or City:

Trip Planner

Search our weather history database for the weather conditions in past years. The results will help you decide how hot, cold, wet, or windy it might be!

Date:

Astronomy

Jan. 15, 2012 Rise Set
Actual Time 7:05 AM MST 4:54 PM MST
Civil Twilight 6:37 AM MST 5:23 PM MST
Nautical Twilight 6:04 AM MST 5:55 PM MST
Astronomical Twilight 5:32 AM MST 6:27 PM MST
Moon No Moon Rise 10:32 AM MST (1/15)
Length of Visible Light 10h 46m
Length of Day
9h 48m
Waning Gibbous, 57% of the Moon is Illuminated
Jan 15
Waning Gibbous
Jan 16
Last Quarter
Jan 23
New
Jan 30
First Quarter
Feb 7
Full

Hourly Weather History & Observations

Time (MST) Temp. Windchill Dew Point Humidity Pressure Visibility Wind Dir Wind Speed Gust Speed Precip Events Conditions
12:53 AM 26.1 °F 18.4 °F 21.0 °F 81% 29.98 in 10.0 mi West 6.9 mph - N/A   Clear
1:53 AM 28.0 °F 18.6 °F 19.9 °F 72% 29.95 in 10.0 mi SW 10.4 mph - N/A   Clear
2:53 AM 27.0 °F 17.3 °F 19.0 °F 72% 29.94 in 10.0 mi SW 10.4 mph - N/A   Clear
3:53 AM 24.1 °F 14.4 °F 17.1 °F 75% 29.94 in 10.0 mi SSW 9.2 mph - N/A   Clear
4:53 AM 23.0 °F 12.4 °F 17.1 °F 78% 29.93 in 10.0 mi WNW 10.4 mph - N/A   Clear
5:53 AM 25.0 °F 20.7 °F 17.1 °F 72% 29.93 in 10.0 mi Variable 3.5 mph - N/A   Clear
6:53 AM 28.0 °F 24.2 °F 18.0 °F 66% 29.91 in 10.0 mi West 3.5 mph - N/A   Clear
9:53 AM 39.0 °F 31.4 °F 27.0 °F 62% 29.89 in 10.0 mi SW 12.7 mph - N/A   Clear
10:53 AM 42.1 °F 37.1 °F 28.9 °F 60% 29.87 in 10.0 mi SW 8.1 mph - N/A   Clear
11:53 AM 43.0 °F 37.7 °F 28.9 °F 58% 29.82 in 10.0 mi SW 9.2 mph - N/A   Clear
12:53 PM 43.0 °F 37.7 °F 28.9 °F 58% 29.75 in 10.0 mi SW 9.2 mph - N/A   Clear
1:53 PM 46.0 °F 40.2 °F 28.0 °F 50% 29.72 in 10.0 mi SW 12.7 mph - N/A   Clear
2:53 PM 44.1 °F 39.5 °F 30.0 °F 58% 29.72 in 10.0 mi SSW 8.1 mph - N/A   Clear
3:53 PM 43.0 °F 40.3 °F 30.0 °F 60% 29.73 in 10.0 mi South 4.6 mph - N/A   Clear
4:53 PM 37.0 °F 29.8 °F 28.9 °F 73% 29.73 in 10.0 mi SSW 10.4 mph - N/A   Clear
5:53 PM 36.0 °F 26.3 °F 28.0 °F 73% 29.74 in 10.0 mi SSW 16.1 mph - N/A   Clear
6:53 PM 34.0 °F 27.2 °F 27.0 °F 75% 29.75 in 10.0 mi SSW 8.1 mph - N/A   Clear
7:53 PM 36.0 °F 28.5 °F 26.1 °F 67% 29.74 in 10.0 mi SSW 10.4 mph - N/A   Clear
8:53 PM 35.1 °F 26.4 °F 25.0 °F 67% 29.73 in 10.0 mi SSW 12.7 mph - N/A   Clear
9:53 PM 34.0 °F 24.6 °F 25.0 °F 70% 29.71 in 10.0 mi SSW 13.8 mph - N/A   Clear
10:53 PM 33.1 °F 24.4 °F 24.1 °F 70% 29.71 in 10.0 mi SSW 11.5 mph - N/A   Clear
11:53 PM 37.0 °F 27.4 °F 25.0 °F 62% 29.70 in 10.0 mi WSW 17.3 mph - N/A   Clear